Regional Weather Roundup
Issued by NWS

Home | Current Version | Previous Version | Text Only | Print | Product List | Glossary On
Versions: 1 2 3 4 5 6 7 8 9 10 11 12 13 14 15 16 17 18 19 20 21 22 23 24 25 26 27 28 29 30 31 32 33 34 35 36 37 38 39 40 41 42 43 44 45 46 47 48 49 50
797
ASUS43 KMKX 090221
RWRWI

WISCONSIN REGIONAL WEATHER ROUNDUP
NATIONAL WEATHER SERVICE MILWAUKEE/SULLIVAN WI
800 PM CST THU DEC 08 2016

NOTE: "FAIR" INDICATES FEW OR NO CLOUDS BELOW 12,000 FEET WITH NO
SIGNIFICANT WEATHER AND/OR OBSTRUCTIONS TO VISIBILITY.

WIZ001-002-006>008-014>016-023>028-090300-
NORTHWEST WISCONSIN

CITY           SKY/WX    TMP DP  RH WIND       PRES   REMARKS
SUPERIOR ARPT  FLURRIES  21  15  76 NW6       30.44R WCI  14
ASHLAND        CLOUDY    21  12  68 N10       30.37S WCI  10
HAYWARD        CLOUDY    21  11  65 VRB7      30.36S WCI  12
SIREN          CLEAR     17  12  81 W3        30.43R
CUMBERLAND     PTCLDY    19  12  73 NW10      30.39R WCI   8
RICE LAKE      CLOUDY    22  16  78 W7        30.41S WCI  13
CHETEK         CLOUDY    22  15  76 NW5       30.39S WCI  16
LADYSMITH      MOCLDY    22  14  72 NW12      30.37S WCI  10
EAU CLAIRE     CLOUDY    22  17  81 W9        30.40R WCI  12
MENOMONIE      CLOUDY    23  16  74 W9        30.42S WCI  13
NEW RICHMOND   PTCLDY    19  14  79 W7        30.43S WCI  10
OSCEOLA        CLEAR     21  15  77 W7        30.47S WCI  12
$$

WIZ003>005-009-010-017-018-090300-
NORTH CENTRAL WISCONSIN

CITY           SKY/WX    TMP DP  RH WIND       PRES   REMARKS
MANITOWISH WTR LGT SNOW  19  18  96 NW12      30.26S WCI   7
ARBOR VITAE    LGT SNOW  22  18  85 NW9G17    30.25F WCI  11
WOODRUFF       LGT SNOW  22  18  85 NW9G17    30.25F WCI  11
RHINELANDER    CLOUDY    21  16  81 NW9G18    30.26R WCI  11
EAGLE RIVER    PTCLDY    19  13  76 NW7       30.24R WCI  10
LAND O LAKES   FLURRIES  20  16  83 NW15G21   30.25R WCI   7
PHILLIPS       CLOUDY    19  15  83 NW5       30.30S WCI  12
TOMAHAWK       CLEAR     19  13  77 W9        30.29S WCI   9
MEDFORD        CLOUDY    21  13  72 NW13G18   30.30S WCI   9
MERRILL        CLOUDY    23  14  69 NW14G22   30.30R WCI  10
$$

WIZ029-030-035-036-043>047-090300-
CENTRAL WISCONSIN

CITY           SKY/WX    TMP DP  RH WIND       PRES   REMARKS
WAUSAU         CLOUDY    22  14  71 NW9       30.30R WCI  12
MOSINEE        CLEAR     19  16  86 NW10      30.31R WCI   8
MARSHFIELD     FLURRIES  22  15  75 NW14      30.32R WCI   9
STEVENS POINT  CLEAR     19  14  82 W5        30.33R WCI  12
WAUPACA        CLEAR     24  16  71 W8        30.33R WCI  15
WAUTOMA        PTCLDY    22  16  78 W10       30.35R WCI  11
WISC RAPIDS    PTCLDY    21  15  78 NW8       30.35R WCI  11
CAMP DOUGLAS   MIX PCPN  23  19  86 W9        30.37R WCI  13
$$

WIZ011>013-019>022-031-037>040-048>050-090300-
NORTHEAST WISCONSIN

CITY           SKY/WX    TMP DP  RH WIND       PRES   REMARKS
ANTIGO         CLOUDY    21  16  82 NW8       30.26R WCI  11
SHAWANO        CLEAR     26  21  81 W6        30.30R WCI  19
OCONTO         CLEAR     24  19  81 W7        30.28R WCI  16
STURGEON BAY   PTCLDY    28  19  69 NW16      30.25R WCI  16
GREEN BAY      CLEAR     26  19  74 W13       30.29R WCI  15
MANITOWOC      PTCLDY    26  18  71 MISG      30.28R
APPLETON       PTCLDY    21  14  73 W12       30.28R WCI   9
CLINTONVILLE   PTCLDY    25  18  74 W10       30.30R WCI  15
OSHKOSH        PTCLDY    22  15  75 NW14      30.31R WCI   9
$$

WIZ032>034-041-042-053>061-090300-
SOUTHWEST WISCONSIN

CITY           SKY/WX    TMP DP  RH WIND       PRES   REMARKS
LA CROSSE      CLOUDY    25  16  68 NW14      30.43S WCI  13
SPARTA         FLURRIES  24  19  83 W8        30.41R WCI  14
VIROQUA        CLOUDY    21  17  82 NW9       30.38R WCI  11
BOSCOBEL       CLOUDY    24  17  74 SW6       30.44R WCI  17
PRAIRIE DU CHI CLOUDY    23  15  71 W6        30.46R WCI  15
PLATTEVILLE    MOCLDY    22  18  86 W13G18    30.43R WCI   9
$$

WIZ056-057-062-063-064-067-068-090300-
SOUTH CENTRAL WISCONSIN

CITY           SKY/WX    TMP DP  RH WIND       PRES   REMARKS
REEDSBURG      CLOUDY    22  18  81 W9        30.38R WCI  12
BARABOO/DELLS  CLOUDY    22  17  79 W5        30.36S WCI  16
LONE ROCK      FLURRIES  24  17  74 W13       30.41R WCI  12
MINERAL POINT  FLURRIES  23  21  93 W14       30.39R WCI  11
MADISON        FLURRIES  22  15  75 W7        30.37R WCI  13
MIDDLETON      CLOUDY    24  18  79 W10       30.38R WCI  13
WATERTOWN      PTCLDY    22  17  81 W7        30.34S WCI  13
MONROE         FLURRIES  23  19  86 W14       30.38S WCI  11
JANESVILLE     FLURRIES  25  18  74 W12       30.38S WCI  14
$$

WIZ051-052-058>065-066-070>072-090300-
SOUTHEAST WISCONSIN

CITY           SKY/WX    TMP DP  RH WIND       PRES   REMARKS
MILWAUKEE      CLEAR     25  15  66 W13G21    30.32S WCI  14
WAUKESHA       CLEAR     19  16  86 W13G18    30.33S WCI   7
MILWAUKEE/TIMM CLEAR     21  16  79 W14       30.33R WCI   8
RACINE         CLEAR     23  15  71 W10       30.34R WCI  12
BURLINGTON     CLEAR     27  22  82 W8        30.35R WCI  18
KENOSHA        CLEAR     22  15  75 W15       30.34R WCI   9
FOND DU LAC    CLOUDY    24  14  65 W14       30.31R WCI  12
SHEBOYGAN      CLEAR     24  15  68 NW14      30.29R WCI  12
WEST BEND      CLEAR     23  19  86 W12G17    30.30S WCI  12
JUNEAU         CLEAR     21  16  79 W8        30.34R WCI  12
$$

LSZ147-162-090300-
LAKE SUPERIOR

STATION/POSITION TIME  TEMP    WIND        PRES    WAVE
                       AIR SEA DIR/SP/G            HT/PER
                 (UTC) (F)     (DEG/KT/KT) (MB)    (FT/S)
DEVILS ISLAND    0200   23     320/ 21/ 24 1029.8R
PORT WING        0201   25     350/ 21/ 25 1029.1S
SAXON HARBOR     0140   26     320/ 18/ 25 1027.8R
$$

LMZ867-665-643>646-090300-
LAKE MICHIGAN

STATION/POSITION TIME  TEMP    WIND        PRES    WAVE
                       AIR SEA DIR/SP/G            HT/PER
                 (UTC) (F)     (DEG/KT/KT) (MB)    (FT/S)
CHAMBERS ISLAND  0140   29     290/  9/ 16 1023.7R
NORTHPORT PIER   0141   31     300/ 21     1023.4R
SISTER BAY       0150   31     340/ 28/ 33   N/A
ALGOMA LAKESHORE 0106          310/  9/ 13   N/A
KEWAUNEE LAKESHO 0154   27     290/  6/ 12 1024.1R
SHEBOYGAN LAKESH 0200   26     290/ 19/ 22 1026.3R
PORT WASHINGTON  0140   24     290/ 11/ 17 1026.8S
MILWAUKEE LAKESH 0200   25     290/ 15/ 19   N/A
KENOSHA   LAKESH 0200   24     270/ 15/ 21 1027.1
$$

TC  - TEMPERATURE IN CELSIUS
VSB - VISIBILITY IN STATUTE MILES
WCI - WIND CHILL INDEX
HX  - HEAT INDEX





USA.gov is the U.S. government's official web portal to all federal, state and local government web resources and services.